Location: Estes Par
(40.3770°N, 105.5210°W)
Time: 09:07:36
(UTC-06:00)

Tiangong 1 - Pass Details

Date: 10 October 2017
Orbit: 294 x 321 km, 42.8° (Epoch: 17 October)

Event Time Altitude Azimuth Distance (km) Brightness Sun altitude
Rises 20:24:50 0° 285° (WNW) 2,027 6.2 -22.8°
Reaches altitude 10° 20:26:50 10° 289° (WNW) 1,193 4.6 -23.1°
Enters shadow 20:27:54 21° 294° (WNW) 771 3.4 -23.3°
